Location: Baia Mare
(47.6567°N, 23.5850°E)
Time: 09:26:55
(UTC+03:00)

ISS - Pass Details

Date: 01 October 2018
Orbit: 403 x 408 km, 51.6° (Epoch: 21 October)

Event Time Altitude Azimuth Distance (km) Brightness Sun altitude
Rises 21:39:45 0° 291° (WNW) 2,340 1.4 -26.1°
Reaches altitude 10° 21:41:53 10° 296° (WNW) 1,477 0.0 -26.4°
Enters shadow 21:43:24 24° 307° (NW) 904 -1.4 -26.7°
